Forest City, IA

12:02 PM CDT on August 18, 2017 (GMT -0500)
Forest City Municipal

Weather History for KFXY - February, 2013

Change the Weather History Date:

Tuesday, February 26, 2013

  Actual Average Record
Temperature  
Mean Temperature 28 °F -  
Max Temperature 32 °F 35 °F 42 °F (2012)
Min Temperature 23 °F 17 °F -13 °F (2014)
Degree Days  
Heating Degree Days 38    
Moisture  
Dew Point 23 °F    
Average Humidity 82    
Maximum Humidity 100    
Minimum Humidity 69    
Precipitation  
Precipitation 0.00 in - - ()
Sea Level Pressure  
Sea Level Pressure 29.84 in    
Wind  
Wind Speed 10 mph (NNE)    
Max Wind Speed 20 mph    
Max Gust Speed 28 mph    
Visibility 6 miles    
Events      
Averages and records for this station are not official NWS values.
T = Trace of Precipitation, MM = Missing Value Source: NWS Daily Summary

Daily Weather History Graph

Daily Weather History Graph

Search for Another Location

Airport or City:

Trip Planner

Search our weather history database for the weather conditions in past years. The results will help you decide how hot, cold, wet, or windy it might be!

Date:

Astronomy

Feb. 26, 2013 Rise Set
Actual Time 6:55 AM CST 6:00 PM CST
Civil Twilight 6:26 AM CST 6:28 PM CST
Nautical Twilight 5:53 AM CST 7:01 PM CST
Astronomical Twilight 5:20 AM CST 7:34 PM CST
Moon 7:21 PM CST (2/26) 6:55 AM CST (2/26)
Length of Visible Light 12h 02m
Length of Day
11h 05m
Full, 99% of the Moon is Illuminated
Feb 26
Full
Mar 4
Last Quarter
Mar 11
New
Mar 19
First Quarter
Mar 27
Full

Hourly Weather History & Observations

Time (CST) Temp. Windchill Dew Point Humidity Pressure Visibility Wind Dir Wind Speed Gust Speed Precip Events Conditions
12:15 AM 26.6 °F 21.2 °F 24.8 °F 93% 29.96 in 3.0 mi NNE 4.6 mph - N/A   Clear
12:35 AM 26.6 °F 18.2 °F 24.8 °F 93% 29.95 in 3.0 mi NNE 8.1 mph - N/A   Clear
12:55 AM 26.6 °F 19.1 °F 23.0 °F 86% 29.94 in 3.0 mi NNE 6.9 mph - N/A   Clear
1:15 AM 24.8 °F 16.9 °F 23.0 °F 93% 29.95 in 3.0 mi North 6.9 mph - N/A   Clear
1:35 AM 24.8 °F 15.3 °F 23.0 °F 93% 29.94 in 2.5 mi North 9.2 mph - N/A   Clear
1:55 AM 24.8 °F 15.3 °F 23.0 °F 93% 29.94 in 2.5 mi NNE 9.2 mph - N/A   Clear
2:15 AM 24.8 °F 16.1 °F 23.0 °F 93% 29.93 in 3.0 mi North 8.1 mph - N/A   Clear
2:35 AM 24.8 °F 15.3 °F 23.0 °F 93% 29.92 in 3.0 mi North 9.2 mph - N/A   Clear
2:55 AM 23.0 °F 14.7 °F 23.0 °F 100% 29.91 in 3.0 mi North 6.9 mph - N/A   Clear
3:15 AM 23.0 °F 17.0 °F 23.0 °F 100% 29.91 in 3.0 mi North 4.6 mph - N/A   Clear
3:35 AM 24.8 °F 14.6 °F 23.0 °F 93% 29.89 in 4.0 mi North 10.4 mph - N/A   Clear
3:55 AM 24.8 °F 15.3 °F 23.0 °F 93% 29.89 in 4.0 mi North 9.2 mph - N/A   Clear
4:15 AM 23.0 °F 13.1 °F 21.2 °F 93% 29.87 in 4.0 mi NNE 9.2 mph - N/A   Clear
4:35 AM 24.8 °F 15.3 °F 23.0 °F 93% 29.87 in 4.0 mi NNE 9.2 mph - N/A   Clear
4:55 AM 24.8 °F 17.9 °F 23.0 °F 93% 29.89 in 4.0 mi NNE 5.8 mph - N/A   Clear
5:15 AM 24.8 °F 16.1 °F 21.2 °F 86% 29.88 in 4.0 mi NNE 8.1 mph - N/A   Clear
5:35 AM 24.8 °F 16.1 °F 21.2 °F 86% 29.88 in 4.0 mi North 8.1 mph - N/A   Clear
5:55 AM 23.0 °F 13.9 °F 21.2 °F 93% 29.89 in 4.0 mi North 8.1 mph - N/A   Clear
6:15 AM 23.0 °F 12.4 °F 21.2 °F 93% 29.88 in 4.0 mi North 10.4 mph - N/A   Clear
6:35 AM 24.8 °F 14.6 °F 21.2 °F 86% 29.87 in 5.0 mi North 10.4 mph - N/A   Clear
6:55 AM 24.8 °F 14.6 °F 21.2 °F 86% 29.87 in 4.0 mi North 10.4 mph - N/A   Clear
7:15 AM 24.8 °F 14.6 °F 21.2 °F 86% 29.87 in 3.0 mi NNE 10.4 mph - N/A   Clear
7:35 AM 24.8 °F 14.6 °F 21.2 °F 86% 29.87 in 4.0 mi North 10.4 mph - N/A   Clear
7:55 AM 24.8 °F 14.6 °F 21.2 °F 86% 29.87 in 4.0 mi North 10.4 mph - N/A   Clear
8:15 AM 26.6 °F 16.2 °F 21.2 °F 80% 29.87 in 4.0 mi North 11.5 mph - N/A   Clear
8:35 AM 26.6 °F 16.2 °F 23.0 °F 86% 29.87 in 4.0 mi NNE 11.5 mph - N/A   Clear
8:55 AM 26.6 °F 17.5 °F 23.0 °F 86% 29.88 in 5.0 mi NNE 9.2 mph 16.1 mph N/A   Clear
9:15 AM 28.4 °F 18.5 °F 23.0 °F 80% 29.88 in 5.0 mi NE 11.5 mph 18.4 mph N/A   Haze
9:35 AM 28.4 °F 18.5 °F 23.0 °F 80% 29.87 in 5.0 mi NE 11.5 mph - N/A   Haze
9:55 AM 28.4 °F 17.5 °F 23.0 °F 80% 29.87 in 5.0 mi NE 13.8 mph 19.6 mph N/A   Haze
10:15 AM 28.4 °F 18.0 °F 23.0 °F 80% 29.86 in 5.0 mi NE 12.7 mph 19.6 mph N/A   Haze
10:35 AM 30.2 °F 19.3 °F 23.0 °F 75% 29.86 in 7.0 mi NNE 15.0 mph - N/A   Clear
10:55 AM 30.2 °F 19.8 °F 23.0 °F 75% 29.85 in 7.0 mi NNE 13.8 mph 20.7 mph N/A   Clear
11:15 AM 30.2 °F 20.8 °F 23.0 °F 75% 29.84 in 7.0 mi NNE 11.5 mph - N/A   Clear
11:35 AM 32.0 °F 21.2 °F 23.0 °F 69% 29.84 in 7.0 mi NNE 16.1 mph - N/A   Clear
11:55 AM 32.0 °F 22.1 °F 23.0 °F 69% 29.83 in 7.0 mi NNE 13.8 mph 20.7 mph N/A   Clear
12:15 PM 32.0 °F 22.5 °F 23.0 °F 69% 29.82 in 7.0 mi NNE 12.7 mph - N/A   Clear
12:35 PM 32.0 °F 22.5 °F 23.0 °F 69% 29.82 in 7.0 mi NNE 12.7 mph 20.7 mph N/A   Clear
12:55 PM 32.0 °F 23.6 °F 23.0 °F 69% 29.82 in 7.0 mi NNE 10.4 mph 18.4 mph N/A   Clear
1:15 PM 32.0 °F 23.0 °F 23.0 °F 69% 29.80 in 10.0 mi North 11.5 mph - N/A   Clear
1:35 PM 32.0 °F 21.6 °F 24.8 °F 75% 29.80 in 10.0 mi NNE 15.0 mph - N/A   Clear
1:55 PM 32.0 °F 22.1 °F 24.8 °F 75% 29.79 in 10.0 mi NNE 13.8 mph 20.7 mph N/A   Clear
2:15 PM 32.0 °F 21.2 °F 24.8 °F 75% 29.78 in 10.0 mi North 16.1 mph 20.7 mph N/A   Clear
2:35 PM 32.0 °F 21.6 °F 24.8 °F 75% 29.77 in 10.0 mi North 15.0 mph 24.2 mph N/A   Clear
2:55 PM 32.0 °F 20.1 °F 24.8 °F 75% 29.77 in 7.0 mi North 19.6 mph - N/A   Clear
3:15 PM 32.0 °F 21.6 °F 24.8 °F 75% 29.77 in 7.0 mi North 15.0 mph - N/A   Clear
3:35 PM 32.0 °F 20.1 °F 26.6 °F 80% 29.78 in 7.0 mi North 19.6 mph 24.2 mph N/A   Clear
3:55 PM 32.0 °F 21.2 °F 26.6 °F 80% 29.79 in 7.0 mi North 16.1 mph 23.0 mph N/A   Mostly Cloudy
4:15 PM 32.0 °F 21.2 °F 26.6 °F 80% 29.79 in 7.0 mi North 16.1 mph 20.7 mph N/A   Overcast
4:35 PM 32.0 °F 21.2 °F 26.6 °F 80% 29.78 in 5.0 mi North 16.1 mph - N/A   Haze
4:55 PM 32.0 °F 20.8 °F 26.6 °F 80% 29.78 in 7.0 mi North 17.3 mph 20.7 mph N/A   Overcast
5:15 PM 32.0 °F 20.8 °F 24.8 °F 75% 29.79 in 10.0 mi NNE 17.3 mph 27.6 mph N/A   Overcast
5:35 PM 32.0 °F 20.5 °F 23.0 °F 69% 29.79 in 10.0 mi NNE 18.4 mph 24.2 mph N/A   Overcast
5:55 PM 32.0 °F 21.2 °F 24.8 °F 75% 29.78 in 10.0 mi North 16.1 mph 26.5 mph N/A   Overcast
6:15 PM 32.0 °F 21.2 °F 24.8 °F 75% 29.78 in 10.0 mi North 16.1 mph 23.0 mph N/A   Scattered Clouds
6:35 PM 30.2 °F 19.3 °F 24.8 °F 80% 29.78 in 10.0 mi North 15.0 mph - N/A   Scattered Clouds
6:55 PM 30.2 °F 19.3 °F 24.8 °F 80% 29.78 in 10.0 mi North 15.0 mph 19.6 mph N/A   Clear
7:15 PM 32.0 °F 22.1 °F 24.8 °F 75% 29.79 in 10.0 mi North 13.8 mph 18.4 mph N/A   Clear
7:35 PM 32.0 °F 21.6 °F 24.8 °F 75% 29.80 in 10.0 mi North 15.0 mph - N/A   Clear
7:55 PM 30.2 °F 19.8 °F 24.8 °F 80% 29.79 in 7.0 mi North 13.8 mph - N/A   Clear
8:15 PM 30.2 °F 19.8 °F 24.8 °F 80% 29.80 in 7.0 mi North 13.8 mph 19.6 mph N/A   Clear
8:35 PM 30.2 °F 20.2 °F 24.8 °F 80% 29.80 in 7.0 mi North 12.7 mph - N/A   Clear
8:55 PM 30.2 °F 20.8 °F 24.8 °F 80% 29.80 in 7.0 mi North 11.5 mph - N/A   Clear
9:15 PM 28.4 °F 18.0 °F 23.0 °F 80% 29.80 in 7.0 mi North 12.7 mph - N/A   Clear
9:35 PM 28.4 °F 18.0 °F 23.0 °F 80% 29.80 in 7.0 mi North 12.7 mph - N/A   Clear
9:55 PM 28.4 °F 18.5 °F 23.0 °F 80% 29.80 in 10.0 mi North 11.5 mph - N/A   Clear
10:15 PM 28.4 °F 18.0 °F 23.0 °F 80% 29.80 in 10.0 mi North 12.7 mph - N/A   Clear
10:55 PM 28.4 °F 18.0 °F 23.0 °F 80% 29.80 in 10.0 mi North 12.7 mph - N/A   Clear
11:15 PM 28.4 °F 18.5 °F 23.0 °F 80% 29.80 in 10.0 mi North 11.5 mph - N/A   Clear
11:35 PM 28.4 °F 18.5 °F 23.0 °F 80% 29.80 in 10.0 mi North 11.5 mph - N/A   Clear
11:55 PM 28.4 °F 18.0 °F 23.0 °F 80% 29.80 in 10.0 mi NNW 12.7 mph - N/A   Clear